time_stamp(utc),avg(mph),gust(mph),direction(deg),12m_air_temp(f),sonic_u(cm/s),sonic_v(cm/s),sonic_w(cm/s),pressure,2m_air_temp(f),pyranometer(W/m^2)
"2020-12-06 00:02:39+00",19.1,21.1,,43,-791,361,35,1008.83,42,0
"2020-12-06 00:07:39+00",19.1,21.1,,43,-790,363,23,1008.83,41.9,0
"2020-12-06 00:12:39+00",16.7,18.7,,42.9,-693,308,30,1008.94,41.9,0
"2020-12-06 00:17:39+00",15.5,19.5,,42.9,-658,204,36,1009,41.9,0
"2020-12-06 00:22:39+00",15.2,17.2,,42.7,-666,218,30,1009.04,41.9,0
"2020-12-06 00:27:39+00",15.5,18.5,,42.5,-687,209,22,1009.09,41.7,0
"2020-12-06 00:32:39+00",15.8,17.8,,42.4,-676,230,26,1009.16,41.6,0
"2020-12-06 00:37:39+00",17.5,20.5,,42.5,-724,349,24,1009.15,41.5,0
"2020-12-06 00:42:39+00",18.2,20.2,,42.5,-759,348,43,1009.06,41.5,0
"2020-12-06 00:47:39+00",20.5,23.5,,42.4,-833,387,41,1009.08,41.5,0
"2020-12-06 00:52:39+00",16.5,19.5,,41.9,-670,342,42,1009.1,41.2,0
"2020-12-06 00:57:39+00",15.7,19.7,,41.8,-622,340,53,1009.2,41.1,0
"2020-12-06 01:02:39+00",21.0,27.0,,41.9,-778,481,47,1009.24,41,0
"2020-12-06 01:07:39+00",22.5,24.5,,42.1,-806,614,52,1009.25,41.1,0
"2020-12-06 01:12:39+00",22.0,25.0,,42.1,-745,652,38,1009.34,41.2,0
"2020-12-06 01:17:39+00",19.8,22.8,,42,-752,499,49,1009.31,41.3,0
"2020-12-06 01:22:39+00",17.7,20.7,,41.9,-684,452,57,1009.25,41.2,0
"2020-12-06 01:27:39+00",22.9,25.9,,41.9,-935,499,41,1009.33,41.1,0
"2020-12-06 01:32:39+00",23.0,26.0,,42,-957,469,10,1009.32,41.1,0
"2020-12-06 01:37:39+00",23.4,26.4,,42,-890,592,48,1009.32,41.2,0
"2020-12-06 01:42:39+00",21.1,24.1,,41.9,-726,611,52,1009.3,41.1,0
"2020-12-06 01:47:39+00",21.6,24.6,,41.7,-701,673,33,1009.33,41.1,0
"2020-12-06 01:52:39+00",18.3,21.3,,41.7,-652,481,44,1009.39,41,0
"2020-12-06 01:57:39+00",18.2,21.2,,41.5,-703,437,57,1009.39,40.8,0
"2020-12-06 02:02:39+00",20.0,23.0,,41.6,-763,482,37,1009.31,40.7,0
"2020-12-06 02:07:39+00",17.0,19.0,,41.4,-648,413,73,1009.28,40.7,0
"2020-12-06 02:12:39+00",20.7,23.7,,41.6,-793,517,32,1009.33,40.7,0
"2020-12-06 02:17:39+00",18.2,23.2,,41.4,-709,435,35,1009.2,40.7,0
"2020-12-06 02:22:39+00",20.6,23.6,,41.6,-728,584,44,1009.2,40.7,0
"2020-12-06 02:27:39+00",17.2,22.2,,41.4,-622,452,55,1009.2,40.7,0
"2020-12-06 02:32:39+00",20.3,22.3,,41.4,-787,484,47,1009.19,40.7,0
"2020-12-06 02:37:39+00",18.1,20.1,,41.2,-659,479,42,1009.28,40.6,0
"2020-12-06 02:42:39+00",16.7,18.7,,41,-627,410,39,1009.29,40.4,0
"2020-12-06 02:47:39+00",18.3,21.3,,41,-698,457,27,1009.3,40.3,0
"2020-12-06 02:52:39+00",18.6,20.6,,40.9,-720,428,24,1009.27,40.1,0
"2020-12-06 02:57:39+00",17.3,20.3,,40.9,-667,435,57,1009.26,40.1,0
"2020-12-06 03:02:39+00",17.9,20.9,,40.8,-709,392,36,1009.32,40,0
"2020-12-06 03:07:39+00",17.2,19.2,,40.8,-662,409,38,1009.48,40,0
"2020-12-06 03:12:39+00",19.1,21.1,,40.7,-722,468,38,1009.5,40,0
"2020-12-06 03:17:39+00",18.6,21.6,,40.7,-749,422,32,1009.42,40,0
"2020-12-06 03:22:39+00",15.3,19.3,,40.6,-646,314,27,1009.64,40,0
"2020-12-06 03:27:39+00",15.9,16.9,,40.8,-608,360,27,1009.69,39.9,0
"2020-12-06 03:32:39+00",18.3,21.3,,40.9,-709,419,49,1009.65,40,0
"2020-12-06 03:37:39+00",18.9,21.9,,40.8,-726,451,44,1009.63,40,0
"2020-12-06 03:42:39+00",19.2,22.2,,40.7,-716,503,75,1009.8,39.9,0
"2020-12-06 03:47:39+00",17.6,19.6,,40.6,-665,456,35,1009.99,39.9,0
"2020-12-06 03:52:39+00",15.8,17.8,,40.5,-629,386,35,1010,39.8,0
"2020-12-06 03:57:39+00",16.5,18.5,,40.5,-656,368,27,1010.13,39.7,0
"2020-12-06 04:02:39+00",15.4,19.4,,40.5,-647,278,34,1010.23,39.7,0
"2020-12-06 04:07:39+00",19.7,21.7,,40.6,-800,415,25,1010.02,39.7,0
"2020-12-06 04:12:39+00",15.0,17.0,,40.6,-592,344,43,1010.14,39.7,0
"2020-12-06 04:17:39+00",16.1,18.1,,40.5,-586,392,50,1010.26,39.7,0
"2020-12-06 04:22:39+00",18.8,23.8,,40.5,-733,448,25,1010.19,39.7,0
"2020-12-06 04:27:39+00",19.9,21.9,,40.4,-718,526,39,1010.12,39.7,0
"2020-12-06 04:32:39+00",19.9,24.9,,40.4,-726,528,33,1010.22,39.7,0
"2020-12-06 04:37:39+00",19.8,21.8,,40.5,-707,546,72,1010.24,39.8,0
"2020-12-06 04:42:39+00",15.5,19.5,,40.3,-587,395,49,1010.28,39.7,0
"2020-12-06 04:47:39+00",18.4,21.4,,40.1,-705,483,38,1010.26,39.6,0
"2020-12-06 04:52:39+00",19.4,21.4,,40.2,-753,465,36,1010.35,39.5,0
"2020-12-06 04:57:39+00",19.9,22.9,,40.3,-752,542,50,1010.38,39.6,0
"2020-12-06 05:02:39+00",22.4,26.4,,40.3,-827,585,45,1010.34,39.6,0
"2020-12-06 05:07:39+00",20.6,23.6,,40.2,-767,544,38,1010.29,39.6,0
"2020-12-06 05:12:39+00",17.4,21.4,,40.1,-616,467,50,1010.3,39.4,0
"2020-12-06 05:17:39+00",21.6,24.6,,40.1,-840,511,36,1010.37,39.4,0
"2020-12-06 05:22:39+00",18.4,21.4,,40.1,-715,443,61,1010.35,39.4,0
"2020-12-06 05:27:39+00",19.7,21.7,,40.2,-762,496,47,1010.27,39.4,0
"2020-12-06 05:32:39+00",19.6,21.6,,40,-734,503,49,1010.15,39.4,0
"2020-12-06 05:37:39+00",18.0,22.0,,39.9,-676,462,71,1010.14,39.3,0
"2020-12-06 05:42:39+00",21.5,25.5,,39.8,-801,555,50,1010.15,39.2,0
"2020-12-06 05:47:39+00",18.8,22.8,,39.7,-642,550,65,1010.28,39.1,0
"2020-12-06 05:52:39+00",22.3,24.3,,39.7,-810,634,67,1010.21,39.2,0
"2020-12-06 05:57:39+00",22.4,26.4,,39.7,-725,680,60,1010.22,39.1,0
"2020-12-06 06:02:39+00",20.4,22.4,,39.5,-747,540,68,1010.34,39,0
"2020-12-06 06:07:39+00",20.3,23.3,,39.5,-787,516,37,1010.43,38.9,0
"2020-12-06 06:12:39+00",15.4,17.4,,39.3,-593,376,52,1010.49,38.8,0
"2020-12-06 06:17:39+00",16.7,20.7,,39.2,-661,399,44,1010.63,38.6,0
"2020-12-06 06:22:39+00",16.5,20.5,,39.3,-629,362,75,1010.59,38.6,0
"2020-12-06 06:27:39+00",19.9,22.9,,39.2,-798,375,33,1010.56,38.5,0
"2020-12-06 06:32:39+00",19.0,23.0,,39.3,-753,389,37,1010.62,38.5,0
"2020-12-06 06:37:39+00",17.5,19.5,,39.2,-708,385,30,1010.74,38.5,0
"2020-12-06 06:42:39+00",19.2,21.2,,39.1,-751,444,21,1010.56,38.5,0
"2020-12-06 06:47:39+00",19.2,22.2,,39.3,-716,481,43,1010.68,38.5,0
"2020-12-06 06:52:39+00",15.8,19.8,,38.7,-664,280,19,1010.64,38.4,0
"2020-12-06 06:57:39+00",20.3,22.3,,38.5,-818,415,31,1010.71,38.1,0
"2020-12-06 07:02:39+00",18.8,21.8,,38.5,-773,343,35,1010.63,37.9,0
"2020-12-06 07:07:39+00",18.0,20.0,,38.6,-718,370,36,1010.67,37.9,0
"2020-12-06 07:12:39+00",18.3,20.3,,38.7,-722,423,32,1010.69,37.9,0
"2020-12-06 07:17:39+00",18.8,20.8,,38.7,-763,388,39,1010.8,38,0
"2020-12-06 07:22:39+00",19.5,22.5,,38.7,-780,424,41,1010.76,38,0
"2020-12-06 07:27:39+00",17.2,21.2,,38.7,-657,384,51,1010.81,38,0
"2020-12-06 07:32:39+00",20.3,23.3,,38.7,-762,510,63,1010.74,38,0
"2020-12-06 07:37:39+00",19.8,22.8,,38.5,-707,530,44,1010.9,38,0
"2020-12-06 07:42:39+00",19.7,21.7,,38,-722,506,39,1010.83,37.7,0
"2020-12-06 07:47:39+00",16.2,19.2,,37.8,-573,388,53,1010.83,37.4,0
"2020-12-06 07:52:39+00",16.1,18.1,,37.7,-585,421,61,1010.95,37.3,0
"2020-12-06 07:57:39+00",15.6,18.6,,37.5,-601,367,22,1010.9,37.1,0
"2020-12-06 08:02:39+00",16.6,18.6,,37.5,-643,394,27,1010.87,36.9,0
"2020-12-06 08:07:39+00",15.0,17.0,,37.6,-599,331,25,1010.96,36.9,0
"2020-12-06 08:12:39+00",13.5,16.5,,37.4,-573,219,24,1011.01,36.8,0
"2020-12-06 08:17:39+00",11.6,13.6,,37.4,-488,170,26,1011.06,36.7,0
"2020-12-06 08:22:39+00",11.6,13.6,,37.6,-493,121,24,1011.13,36.7,0
"2020-12-06 08:27:39+00",12.0,13.0,,37.7,-527,115,34,1011.14,36.8,0
"2020-12-06 08:32:39+00",14.6,15.6,,37.6,-658,100,30,1011.06,36.9,0
"2020-12-06 08:37:39+00",15.2,18.2,,37.7,-684,152,28,1010.92,36.9,0
"2020-12-06 08:42:39+00",14.2,16.2,,37.8,-631,131,55,1010.94,37,0
"2020-12-06 08:47:39+00",13.4,17.4,,38,-588,112,54,1010.93,37.1,0
"2020-12-06 08:52:39+00",15.8,19.8,,38,-697,208,20,1010.91,37.1,0
"2020-12-06 08:57:39+00",18.0,20.0,,38.1,-788,208,38,1010.85,37.3,0
"2020-12-06 09:02:39+00",18.4,20.4,,38.2,-819,163,35,1010.9,37.4,0
"2020-12-06 09:07:39+00",17.1,21.1,,38.1,-759,152,53,1010.9,37.4,0
"2020-12-06 09:12:39+00",17.1,18.1,,38,-761,157,33,1010.88,37.3,0
"2020-12-06 09:17:39+00",16.4,19.4,,37.9,-726,144,53,1010.92,37.3,0
"2020-12-06 09:22:39+00",17.6,19.6,,37.8,-775,190,26,1010.88,37.2,0
"2020-12-06 09:27:39+00",19.5,23.5,,38,-864,248,29,1010.79,37.1,0
"2020-12-06 09:32:39+00",17.6,20.6,,38.1,-752,205,54,1010.89,37.2,0
"2020-12-06 09:37:39+00",15.3,21.3,,38.2,-664,124,38,1010.99,37.3,0
"2020-12-06 09:42:39+00",15.2,17.2,,37.8,-685,93,30,1011.01,37.2,0
"2020-12-06 09:47:39+00",15.5,18.5,,37.6,-701,92,19,1010.97,37.1,0
"2020-12-06 09:52:39+00",16.3,17.3,,37.7,-729,111,44,1010.92,37,0
"2020-12-06 09:57:39+00",17.1,19.1,,37.6,-763,111,46,1010.95,36.9,0
"2020-12-06 10:02:39+00",16.5,18.5,,37.7,-731,91,27,1011.07,36.9,0
"2020-12-06 10:07:39+00",17.1,20.1,,37.8,-787,94,35,1011.14,37,0
"2020-12-06 10:12:39+00",17.3,22.3,,37.6,-779,94,47,1011.21,36.9,0
"2020-12-06 10:17:39+00",16.1,18.1,,37.5,-718,79,11,1011.14,36.8,0
"2020-12-06 10:22:39+00",16.5,17.5,,37.4,-745,54,10,1011.16,36.7,0
"2020-12-06 10:27:39+00",15.2,18.2,,37.2,-678,-16,24,1011.22,36.6,0
"2020-12-06 10:32:39+00",15.8,18.8,,37.1,-713,-41,27,1011.17,36.5,0
"2020-12-06 10:37:39+00",16.7,19.7,,37.3,-737,70,44,1011.12,36.4,0
"2020-12-06 10:42:39+00",18.5,20.5,,37.7,-827,91,47,1011.1,36.5,0
"2020-12-06 10:47:39+00",18.1,20.1,,37.6,-811,155,52,1011.13,36.6,0
"2020-12-06 10:52:39+00",19.6,23.6,,37.8,-883,153,50,1011.04,36.7,0
"2020-12-06 10:57:39+00",19.3,22.3,,37.9,-870,132,54,1011.01,36.8,0
"2020-12-06 11:02:39+00",20.0,23.0,,38,-893,183,32,1011,36.9,0
"2020-12-06 11:07:39+00",19.3,22.3,,38.1,-842,179,38,1011.09,37,0
"2020-12-06 11:12:39+00",19.7,22.7,,38.1,-862,218,40,1011.15,37,0
"2020-12-06 11:17:39+00",17.9,20.9,,38.2,-822,154,64,1011.23,37.1,0
"2020-12-06 11:22:39+00",21.0,23.0,,38,-936,191,40,1011.23,37,0
"2020-12-06 11:27:39+00",20.3,22.3,,38,-908,172,30,1011.21,37,0
"2020-12-06 11:32:39+00",19.8,21.8,,38,-862,191,42,1011.34,37,0
"2020-12-06 11:37:39+00",21.1,24.1,,38,-918,239,30,1011.35,37,0
"2020-12-06 11:42:39+00",21.4,24.4,,38,-913,248,52,1011.27,37,0
"2020-12-06 11:47:39+00",20.8,24.8,,37.8,-918,266,32,1011.32,37,0
"2020-12-06 11:52:39+00",18.9,20.9,,37.8,-833,201,49,1011.34,36.9,0
"2020-12-06 11:57:39+00",17.0,21.0,,37.8,-759,187,72,1011.32,36.8,0
"2020-12-06 12:02:39+00",18.0,20.0,,37.6,-793,249,32,1011.31,36.7,0
"2020-12-06 12:07:39+00",20.7,23.7,,37.6,-900,234,51,1011.38,36.6,0
"2020-12-06 12:12:39+00",19.4,22.4,,37.6,-835,228,49,1011.37,36.7,0
"2020-12-06 12:17:39+00",20.1,23.1,,37.7,-889,224,72,1011.23,36.7,0
"2020-12-06 12:22:39+00",18.9,21.9,,37.7,-854,135,35,1011.21,36.9,0
"2020-12-06 12:27:39+00",18.0,23.0,,37.6,-784,110,49,1011.23,37.1,0
"2020-12-06 12:32:39+00",21.3,23.3,,37.6,-945,166,66,1011.13,37.4,0
"2020-12-06 12:37:39+00",18.8,21.8,,37.6,-827,188,81,1011.24,37.6,0
"2020-12-06 12:42:39+00",20.7,24.7,,37.6,-901,170,41,1011.22,37.9,0
"2020-12-06 12:47:39+00",20.7,22.7,,37.6,-934,191,44,1011.2,38.2,0
"2020-12-06 12:52:39+00",17.2,21.2,,37.4,-747,236,68,1011.12,38.2,0
"2020-12-06 12:57:39+00",20.7,23.7,,37.4,-925,231,37,1011.1,38.3,0
"2020-12-06 13:02:39+00",21.0,23.0,,37.4,-913,320,33,1011.16,38.4,0
"2020-12-06 13:07:39+00",21.9,25.9,,37.4,-906,346,34,1010.96,38.5,0
"2020-12-06 13:12:39+00",19.4,22.4,,37.5,-796,365,43,1010.95,38.6,0
"2020-12-06 13:17:39+00",20.4,24.4,,37.6,-888,260,37,1010.97,38.5,0
"2020-12-06 13:22:39+00",19.6,24.6,,37.6,-871,294,50,1010.99,38.6,0
"2020-12-06 13:27:39+00",23.7,27.7,,37.6,-996,440,32,1010.99,38.7,0
"2020-12-06 13:32:39+00",23.5,26.5,,37.7,-1036,297,38,1010.98,38.7,0
"2020-12-06 13:37:39+00",19.9,23.9,,37.8,-854,299,83,1010.96,38.9,0
"2020-12-06 13:42:39+00",22.3,28.3,,37.9,-970,366,38,1010.9,39,0
"2020-12-06 13:47:39+00",23.3,27.3,,38,-965,422,34,1010.9,38.9,0
"2020-12-06 13:52:39+00",24.4,30.4,,37.9,-972,561,58,1011.05,38.9,0
"2020-12-06 13:57:39+00",23.5,27.5,,38.1,-848,567,46,1010.94,39,0
"2020-12-06 14:02:39+00",25.7,30.7,,38,-1087,486,43,1010.83,38.9,0
"2020-12-06 14:07:39+00",22.7,27.7,,38.3,-952,447,51,1010.7,39.2,0
"2020-12-06 14:12:39+00",24.7,30.7,,38.4,-970,566,66,1010.6,39.3,0
"2020-12-06 14:17:39+00",24.2,30.2,,38.4,-954,539,65,1010.56,39.4,0
"2020-12-06 14:22:39+00",24.2,28.2,,38.5,-897,610,64,1010.51,39.5,0
"2020-12-06 14:27:39+00",23.8,27.8,,38.6,-912,570,45,1010.59,39.6,0
"2020-12-06 14:32:39+00",27.5,31.5,,38.4,-1038,724,48,1010.62,39.5,0
"2020-12-06 14:37:39+00",25.9,31.9,,38.6,-1084,494,48,1010.66,39.7,0
"2020-12-06 14:42:39+00",20.6,25.6,,39.1,-796,447,83,1010.63,40,0
"2020-12-06 14:47:39+00",19.7,23.7,,38.8,-727,534,68,1010.57,40,0
"2020-12-06 14:52:39+00",28.5,32.5,,38.7,-1130,627,58,1010.48,40,0
"2020-12-06 14:57:39+00",24.4,26.4,,38.5,-915,607,61,1010.46,39.9,0
"2020-12-06 15:02:39+00",25.8,29.8,,38.8,-1005,598,43,1010.53,40,0
"2020-12-06 15:07:39+00",27.6,31.6,,38.8,-1075,675,44,1010.52,40.1,0
"2020-12-06 15:12:39+00",29.1,35.1,,38.8,-1116,688,29,1010.49,40.2,0
"2020-12-06 15:17:39+00",27.0,29.0,,38.8,-990,762,32,1010.48,40.1,0
"2020-12-06 15:22:39+00",22.7,26.7,,39.1,-919,483,55,1010.45,40.3,0
"2020-12-06 15:27:39+00",21.8,24.8,,39.3,-803,578,69,1010.54,40.7,0
"2020-12-06 15:32:39+00",20.4,25.4,,39.6,-803,447,67,1010.42,40.8,0
"2020-12-06 15:37:39+00",19.2,23.2,,39.8,-746,489,82,1010.37,41.3,0
"2020-12-06 15:42:39+00",22.5,28.5,,39.7,-792,682,50,1010.33,41.3,0
"2020-12-06 15:47:39+00",25.7,30.7,,39.5,-797,812,69,1010.31,41,0
"2020-12-06 15:52:39+00",26.6,30.6,,39.6,-907,773,64,1010.21,40.9,0
"2020-12-06 15:57:39+00",25.0,30.0,,39.3,-864,712,60,1010.3,40.9,0
"2020-12-06 16:02:39+00",21.6,23.6,,39.8,-766,596,28,1010.38,41.1,0
"2020-12-06 16:07:39+00",23.9,28.9,,39.7,-961,501,77,1010.32,41.2,0
"2020-12-06 16:12:39+00",24.3,28.3,,39.8,-853,679,69,1010.23,41.4,0
"2020-12-06 16:17:39+00",22.1,25.1,,39.8,-745,682,41,1010.22,41.4,0
"2020-12-06 16:22:39+00",21.3,24.3,,39.9,-680,692,42,1010.13,41.6,0
"2020-12-06 16:27:39+00",20.0,22.0,,40,-644,627,51,1010.03,41.8,0
"2020-12-06 16:32:39+00",19.7,22.7,,40,-730,499,56,1009.97,41.7,0
"2020-12-06 16:37:39+00",23.0,27.0,,40.1,-869,551,62,1009.91,42,0
"2020-12-06 16:42:39+00",21.2,24.2,,40.1,-818,442,68,1009.94,41.9,0
"2020-12-06 16:47:39+00",21.6,24.6,,40.1,-847,489,37,1009.83,41.9,0
"2020-12-06 16:52:39+00",20.6,25.6,,40.2,-914,278,53,1009.87,42.1,0
"2020-12-06 16:57:39+00",20.0,24.0,,40.7,-887,295,73,1009.81,42.5,0
"2020-12-06 17:02:39+00",23.6,27.6,,40.6,-831,652,44,1009.67,42.7,0
"2020-12-06 17:07:39+00",23.5,25.5,,40.5,-823,638,48,1009.63,42.5,0
"2020-12-06 17:12:39+00",23.6,26.6,,40.5,-951,494,47,1009.66,42.6,0
"2020-12-06 17:17:39+00",25.5,30.5,,40.4,-1017,496,50,1009.58,42.7,0
"2020-12-06 17:22:39+00",23.3,28.3,,40.5,-999,328,77,1009.48,42.9,0
"2020-12-06 17:27:39+00",20.8,24.8,,40.7,-804,482,47,1009.53,42.9,0
"2020-12-06 17:32:39+00",21.4,24.4,,40.9,-876,392,65,1009.46,43,0
"2020-12-06 17:37:39+00",18.2,22.2,,41.4,-750,353,74,1009.45,43.3,0
"2020-12-06 17:42:39+00",23.7,26.7,,40.7,-965,501,49,1009.41,42.9,0
"2020-12-06 17:47:39+00",20.3,27.3,,41.1,-700,593,82,1009.49,42.8,0
"2020-12-06 17:52:39+00",20.5,23.5,,40.8,-649,634,79,1009.56,42.4,0
"2020-12-06 17:57:39+00",22.1,26.1,,41,-896,511,30,1009.51,42.6,0
"2020-12-06 18:02:39+00",24.5,29.5,,40.7,-956,535,37,1009.41,42.4,0
"2020-12-06 18:07:39+00",22.7,26.7,,41.2,-887,509,63,1009.35,42.6,0
"2020-12-06 18:12:39+00",24.8,28.8,,40.9,-988,544,63,1009.41,42.7,0
"2020-12-06 18:17:39+00",24.9,28.9,,40.9,-1049,378,23,1009.37,42.7,0
"2020-12-06 18:22:39+00",22.4,26.4,,41.1,-782,653,59,1009.29,42.7,0
"2020-12-06 18:27:39+00",22.1,28.1,,41.5,-977,332,64,1009.15,43,0
"2020-12-06 18:32:39+00",22.3,24.3,,41.2,-830,564,40,1009.16,42.9,0
"2020-12-06 18:37:39+00",20.6,24.6,,41.7,-820,457,54,1009.09,43.2,0
"2020-12-06 18:42:39+00",21.4,24.4,,41.4,-739,629,56,1009.19,43.1,0
"2020-12-06 18:47:39+00",22.5,25.5,,41.4,-797,624,31,1009.22,42.9,0
"2020-12-06 18:52:39+00",22.5,27.5,,41.6,-781,636,70,1009.25,42.9,0
"2020-12-06 18:57:39+00",21.7,23.7,,41.2,-841,509,39,1009.22,42.7,0
"2020-12-06 19:02:39+00",22.5,26.5,,41.5,-807,582,64,1009.19,42.8,0
"2020-12-06 19:07:39+00",25.3,29.3,,41.5,-915,695,39,1009.33,42.9,0
"2020-12-06 19:12:39+00",23.1,27.1,,41.5,-791,671,74,1009.3,42.7,0
"2020-12-06 19:17:39+00",25.1,28.1,,41.5,-872,720,70,1009.22,42.7,0
"2020-12-06 19:22:39+00",27.2,31.2,,41.6,-1103,603,63,1009.17,42.8,0
"2020-12-06 19:27:39+00",27.2,31.2,,41.5,-1092,597,43,1009.27,42.7,0
"2020-12-06 19:32:39+00",24.6,27.6,,41.5,-962,599,60,1009.33,42.5,0
"2020-12-06 19:37:39+00",23.9,26.9,,41.6,-972,482,40,1009.34,42.7,0
"2020-12-06 19:42:39+00",24.4,26.4,,41.6,-971,562,25,1009.33,42.9,0
"2020-12-06 19:47:39+00",21.7,23.7,,41.6,-818,521,44,1009.51,42.8,0
"2020-12-06 19:52:39+00",20.7,22.7,,41.7,-851,439,28,1009.53,42.9,0
"2020-12-06 19:57:39+00",20.3,23.3,,41.9,-783,472,68,1009.52,43,0
"2020-12-06 20:02:39+00",21.6,24.6,,41.8,-932,313,56,1009.55,43,0
"2020-12-06 20:07:39+00",23.2,26.2,,41.5,-820,626,60,1009.71,42.5,0
"2020-12-06 20:12:39+00",22.2,26.2,,41.5,-865,535,62,1009.77,42.3,0
"2020-12-06 20:17:39+00",20.9,23.9,,41.4,-825,484,58,1009.76,42.2,0
"2020-12-06 20:22:39+00",20.1,22.1,,41.5,-705,549,62,1009.81,42.1,0
"2020-12-06 20:27:39+00",21.1,25.1,,41.4,-823,482,44,1009.7,42.1,0
"2020-12-06 20:32:39+00",22.2,25.2,,41.3,-906,468,53,1009.76,42,0
"2020-12-06 20:37:39+00",21.6,25.6,,41.2,-871,453,42,1009.91,41.9,0
"2020-12-06 20:42:39+00",20.6,23.6,,41.2,-839,418,41,1010.07,41.8,0
"2020-12-06 20:47:39+00",20.3,22.3,,41.2,-825,431,45,1010.13,41.7,0
"2020-12-06 20:52:39+00",18.6,22.6,,41.2,-783,352,43,1010.09,41.5,0
"2020-12-06 20:57:39+00",21.5,24.5,,41.1,-879,448,33,1010.22,41.3,0
"2020-12-06 21:02:39+00",18.6,19.6,,41.1,-699,449,46,1010.31,41,0
"2020-12-06 21:07:39+00",21.3,24.3,,41,-853,440,28,1010.33,40.8,0
"2020-12-06 21:12:39+00",17.9,23.9,,40.8,-672,463,59,1010.52,40.6,0
"2020-12-06 21:17:39+00",16.4,20.4,,40.7,-618,406,56,1010.48,40.4,0
"2020-12-06 21:22:39+00",15.2,17.2,,40.5,-597,357,33,1010.62,40.1,0
"2020-12-06 21:27:39+00",18.4,21.4,,40.5,-752,370,22,1010.62,39.9,0
"2020-12-06 21:32:39+00",16.0,18.0,,40.5,-648,365,35,1010.78,39.8,0
"2020-12-06 21:37:39+00",15.9,18.9,,40.4,-613,393,27,1010.97,39.6,0
"2020-12-06 21:42:39+00",15.1,18.1,,40.2,-582,350,29,1011.06,39.5,0
"2020-12-06 21:47:39+00",14.0,17.0,,40,-556,327,34,1011.1,39.3,0
"2020-12-06 21:52:39+00",15.9,18.9,,40,-634,370,36,1011.27,39.1,0
"2020-12-06 21:57:39+00",13.1,18.1,,39.8,-515,259,44,1011.33,39,0
"2020-12-06 22:02:39+00",11.5,13.5,,39.8,-449,283,38,1011.34,38.9,0
"2020-12-06 22:07:39+00",14.8,16.8,,39.8,-583,307,14,1011.34,38.7,0
"2020-12-06 22:12:39+00",12.3,14.3,,39.5,-475,291,30,1011.4,38.6,0
"2020-12-06 22:17:39+00",15.2,17.2,,39.4,-587,359,30,1011.41,38.4,0
"2020-12-06 22:22:39+00",12.9,15.9,,39.3,-469,351,24,1011.44,38.3,0
"2020-12-06 22:27:39+00",12.8,14.8,,39.2,-502,317,23,1011.43,38.1,0
"2020-12-06 22:32:39+00",11.4,12.4,,39.1,-425,290,19,1011.5,37.9,0
"2020-12-06 22:37:39+00",9.6,10.6,,39.1,-368,211,28,1011.61,37.8,0
"2020-12-06 22:42:39+00",10.7,11.7,,38.9,-407,242,28,1011.71,37.6,0
"2020-12-06 22:47:39+00",11.3,12.3,,38.9,-412,294,26,1011.7,37.5,0
"2020-12-06 22:52:39+00",11.9,13.9,,38.9,-454,277,15,1011.69,37.5,0
"2020-12-06 22:57:39+00",14.2,16.2,,39.1,-577,277,33,1011.64,37.6,0
"2020-12-06 23:02:39+00",14.6,16.6,,38.9,-627,218,33,1011.67,37.6,0
"2020-12-06 23:07:39+00",15.0,17.0,,39.1,-628,250,25,1011.76,37.6,0
"2020-12-06 23:12:39+00",13.0,15.0,,38.9,-552,209,14,1011.89,37.6,0
"2020-12-06 23:17:39+00",12.9,14.9,,38.9,-560,189,11,1011.94,37.5,0
"2020-12-06 23:22:39+00",10.3,12.3,,39,-450,93,30,1012.07,37.4,0
"2020-12-06 23:27:39+00",11.2,13.2,,38.8,-491,47,20,1012.25,37.4,0
"2020-12-06 23:32:39+00",9.3,10.3,,38.5,-410,20,20,1012.3,37.2,0
"2020-12-06 23:37:39+00",11.0,13.0,,38.3,-490,1,13,1012.34,37,0
"2020-12-06 23:42:39+00",9.3,10.3,,38,-414,-12,13,1012.38,36.7,0
"2020-12-06 23:47:39+00",9.2,11.2,,37.7,-415,-12,13,1012.42,36.4,0
"2020-12-06 23:52:39+00",10.7,11.7,,37.6,-477,18,11,1012.36,36.1,0
"2020-12-06 23:57:39+00",11.4,14.4,,37.8,-502,17,24,1012.29,36.1,0
